Temp
67 70 75 76 76 76 76 75 75 75 76 76 76 76 76 76 75 75 76 76 76 77 77 76 76 75 75 75 74 74 74 74 74 74 74 75 75 75 74 73 72 70 74
69 71 73 75 76 76 76 75 75 75 76 76 76 76 76 76 76 76 76 76 76 77 76 76 75 74 74 74 74 73 73 73 72 72 72 73 74 75 73 73 73 72 74
70 72 73 74 75 75 75 75 75 75 75 75 75 75 75 76 76 76 76 75 76 76 76 76 75 74 73 73 73 73 73 72 72 72 70 64 67 74 74 73 73 74 73
71 72 72 72 74 74 74 74 75 75 75 75 75 75 75 75 75 75 75 75 75 76 76 75 75 74 73 72 73 73 72 72 71 70 65 66 69 74 74 73 73 73 72
71 72 71 72 74 74 74 74 74 74 75 75 75 75 75 74 74 74 74 74 74 75 75 75 74 73 72 72 72 72 72 71 69 68 63 63 64 72 73 72 71 71 71
70 71 70 72 74 74 74 74 74 74 74 74 74 74 74 74 73 74 73 73 73 74 74 74 73 72 71 71 71 71 71 70 67 61 62 66 65 73 73 72 71 71 71
68 70 70 71 73 73 74 74 74 74 74 74 74 74 73 73 73 73 73 73 73 73 73 72 72 71 71 70 70 70 70 68 63 61 61 62 64 72 72 72 71 71 71
68 69 70 68 70 71 72 73 73 73 73 73 73 73 73 73 73 73 73 72 72 72 72 72 71 70 70 70 69 69 68 66 64 61 62 62 68 72 73 72 71 71 71
69 68 67 68 67 67 69 70 71 72 72 72 72 72 71 71 71 71 71 72 72 72 71 71 70 70 70 70 69 68 67 66 60 61 65 62 69 73 73 72 72 71 71
67 67 65 66 67 67 67 66 67 69 70 70 70 68 67 68 68 69 68 70 72 72 71 70 70 70 70 69 68 67 66 65 60 61 62 61 69 72 72 72 72 72 72
67 66 65 65 65 66 66 66 64 66 66 66 66 65 64 65 66 66 65 67 70 70 70 70 70 69 68 67 66 66 64 62 61 62 61 65 70 72 72 72 72 72 72
63 64 66 65 65 65 70 65 65 66 65 65 65 65 65 64 65 69 65 64 67 67 68 69 69 68 64 63 66 65 66 67 67 67 66 66 71 72 72 72 72 72 72
65 66 67 66 66 66 68 64 63 64 63 64 64 64 64 66 64 67 67 66 66 62 63 64 67 67 67 66 66 67 67 67 67 68 67 66 70 72 73 73 72 72 72
65 67 68 68 69 68 68 65 64 64 63 63 64 65 63 63 63 63 62 62 65 64 65 65 65 66 66 65 64 64 64 63 63 67 66 63 67 72 75 75 74 73 73
66 68 69 69 68 68 65 64 64 64 64 64 64 65 64 62 62 62 62 62 62 63 64 62 62 66 66 62 62 61 61 65 68 67 67 62 63 69 72 74 74 74 73
69 68 69 68 68 68 66 65 65 64 65 64 64 65 65 64 63 62 62 61 62 63 63 62 62 62 61 60 61 61 61 61 64 68 68 64 63 65 69 71 71 71 72
69 69 67 68 68 67 66 66 65 65 66 65 65 65 66 66 64 63 62 61 61 62 62 61 61 61 60 60 60 60 61 61 61 62 66 65 65 61 65 67 68 69 70
68 67 68 72 69 67 67 67 66 66 65 65 65 65 66 67 66 64 63 62 62 62 61 60 60 59 59 59 59 60 60 60 61 61 64 64 63 61 62 64 65 67 69
67 67 68 67 68 67 66 66 66 66 65 65 65 65 66 66 67 66 64 64 63 62 61 61 60 59 59 59 59 60 60 59 59 61 60 61 59 59 58 58 58 60 65
67 67 69 68 67 66 65 64 64 63 63 64 64 65 66 66 66 64 63 62 62 61 61 60 60 60 59 59 62 62 59 59 59 60 60 61 59 58 56 56 55 55 59
65 65 66 65 65 64 62 62 61 62 62 63 63 64 64 64 64 63 61 61 60 60 60 61 60 59 58 59 56 56 56 57 56 57 59 59 59 58 57 54 52 52 54
65 65 65 65 64 64 62 62 63 62 62 62 62 63 63 62 62 61 60 59 59 58 59 59 59 58 58 58 56 53 50 53 57 58 58 57 55 55 54 53 52 51 49
58 59 62 63 64 63 63 62 60 60 59 58 58 58 60 60 60 60 59 58 58 58 59 59 58 59 58 57 58 56 48 48 54 56 54 54 53 52 51 51 49 48 47
54 55 57 58 60 61 61 60 59 58 57 56 56 56 57 57 57 57 57 57 57 57 58 59 59 59 58 59 57 58 54 53 50 50 51 50 51 51 50 50 48 47 44
52 52 52 55 56 56 56 56 55 54 53 53 54 54 54 54 54 55 54 54 54 55 55 56 56 56 56 58 54 52 52 53 52 50 48 45 48 46 46 46 41 40 41
51 51 51 53 54 54 53 53 53 52 52 51 51 51 51 50 51 51 52 52 52 53 53 54 54 54 55 56 55 53 52 51 50 51 52 48 46 43 41 40 38 38 38
MSLP
1020.47 1020.29 1020.36 1020.61 1020.74 1020.82 1021.03 1021.18 1021.28 1021.36 1021.44 1021.48 1021.53 1021.61 1021.55 1021.47 1021.42 1021.41 1021.44 1021.55 1021.61 1021.67 1021.85 1021.96 1022.11 1022.24 1022.34 1022.35 1022.38 1022.34 1022.43 1022.26 1022.14 1022.06 1022.03 1021.91 1021.77 1021.75 1021.83 1021.81 1021.70 1021.59 1021.46
1019.94 1020.30 1020.51 1020.69 1020.87 1021.01 1021.21 1021.37 1021.49 1021.60 1021.69 1021.76 1021.83 1021.89 1021.85 1021.85 1021.84 1021.81 1021.84 1021.90 1021.89 1022.03 1022.22 1022.30 1022.42 1022.64 1022.70 1022.66 1022.68 1022.70 1022.77 1022.68 1022.57 1022.58 1022.50 1022.32 1022.06 1021.99 1022.18 1022.15 1021.97 1021.82 1021.76
1020.01 1020.43 1020.70 1020.88 1021.12 1021.22 1021.43 1021.65 1021.75 1021.84 1021.97 1022.08 1022.18 1022.23 1022.22 1022.19 1022.21 1022.21 1022.28 1022.25 1022.27 1022.45 1022.50 1022.67 1022.73 1022.95 1023.05 1022.93 1022.90 1022.94 1022.98 1022.84 1022.59 1022.84 1022.88 1022.82 1022.58 1022.41 1022.43 1022.36 1022.30 1022.15 1022.07
1020.02 1020.56 1020.90 1021.15 1021.32 1021.52 1021.72 1021.86 1021.99 1022.09 1022.19 1022.30 1022.44 1022.54 1022.52 1022.49 1022.55 1022.65 1022.68 1022.70 1022.71 1022.76 1022.80 1022.97 1023.03 1023.15 1023.31 1023.17 1023.13 1023.06 1022.98 1022.95 1022.93 1023.00 1023.09 1022.98 1022.81 1022.63 1022.60 1022.63 1022.56 1022.51 1022.39
1020.21 1020.61 1021.01 1021.29 1021.49 1021.67 1021.90 1022.08 1022.24 1022.39 1022.53 1022.62 1022.66 1022.79 1022.86 1022.91 1022.94 1023.01 1023.10 1023.12 1023.18 1023.09 1023.12 1023.25 1023.33 1023.47 1023.52 1023.45 1023.33 1023.25 1023.30 1023.25 1023.18 1023.33 1023.26 1023.15 1023.07 1022.82 1022.86 1022.95 1022.90 1022.82 1022.67
1020.43 1020.74 1021.12 1021.35 1021.62 1021.83 1022.00 1022.20 1022.43 1022.59 1022.74 1022.86 1022.92 1022.98 1023.15 1023.24 1023.28 1023.29 1023.41 1023.44 1023.48 1023.43 1023.43 1023.42 1023.62 1023.75 1023.74 1023.62 1023.46 1023.34 1023.44 1023.39 1023.44 1023.51 1023.35 1023.21 1023.15 1022.90 1022.91 1022.95 1022.94 1022.92 1022.84
1020.64 1021.00 1021.22 1021.44 1021.71 1022.01 1022.14 1022.26 1022.47 1022.68 1022.79 1022.93 1023.14 1023.23 1023.33 1023.42 1023.46 1023.51 1023.60 1023.67 1023.71 1023.74 1023.78 1023.78 1023.84 1023.89 1023.88 1023.72 1023.63 1023.47 1023.50 1023.44 1023.58 1023.59 1023.55 1023.34 1023.20 1022.97 1022.91 1022.90 1022.90 1022.87 1022.84
1020.74 1021.22 1021.59 1021.76 1021.90 1022.10 1022.38 1022.47 1022.52 1022.71 1022.88 1023.01 1023.16 1023.32 1023.43 1023.53 1023.59 1023.58 1023.65 1023.75 1023.82 1023.87 1023.94 1023.99 1023.99 1023.96 1023.93 1023.86 1023.76 1023.63 1023.54 1023.52 1023.48 1023.52 1023.43 1023.33 1023.10 1022.89 1022.76 1022.77 1022.81 1022.81 1022.78
1020.90 1021.36 1021.81 1022.09 1022.22 1022.28 1022.50 1022.76 1022.74 1022.76 1022.88 1023.00 1023.12 1023.28 1023.42 1023.60 1023.75 1023.80 1023.83 1023.83 1023.85 1023.92 1023.97 1024.00 1024.03 1023.98 1023.93 1023.85 1023.75 1023.67 1023.55 1023.47 1023.50 1023.48 1023.28 1023.29 1023.00 1022.83 1022.75 1022.70 1022.68 1022.69 1022.65
1021.05 1021.43 1021.88 1022.17 1022.40 1022.46 1022.59 1022.83 1022.98 1022.99 1023.03 1023.13 1023.21 1023.36 1023.48 1023.55 1023.69 1023.82 1023.90 1023.94 1023.90 1023.89 1023.94 1023.98 1023.99 1023.98 1023.91 1023.84 1023.70 1023.62 1023.52 1023.39 1023.41 1023.43 1023.29 1023.23 1022.93 1022.75 1022.64 1022.60 1022.58 1022.51 1022.39
1021.55 1021.50 1021.82 1022.07 1022.42 1022.59 1022.62 1022.75 1022.97 1023.10 1023.14 1023.28 1023.37 1023.38 1023.48 1023.59 1023.69 1023.77 1023.80 1023.85 1023.89 1023.92 1023.91 1023.90 1023.86 1023.84 1023.81 1023.73 1023.61 1023.46 1023.41 1023.36 1023.31 1023.19 1023.15 1023.06 1022.84 1022.67 1022.59 1022.54 1022.42 1022.31 1022.19
1021.68 1021.74 1021.62 1021.94 1022.18 1022.50 1022.55 1022.72 1022.88 1023.11 1023.34 1023.40 1023.42 1023.51 1023.46 1023.48 1023.46 1023.50 1023.70 1023.78 1023.77 1023.81 1023.76 1023.71 1023.68 1023.66 1023.66 1023.66 1023.46 1023.23 1023.15 1023.06 1022.99 1022.87 1022.78 1022.80 1022.65 1022.48 1022.39 1022.34 1022.24 1022.13 1021.98
1021.12 1021.62 1021.65 1021.72 1021.84 1022.09 1022.21 1022.51 1022.67 1022.87 1023.08 1023.21 1023.36 1023.41 1023.45 1023.34 1023.26 1023.18 1023.28 1023.38 1023.59 1023.65 1023.76 1023.67 1023.52 1023.44 1023.34 1023.20 1023.04 1022.87 1022.80 1022.73 1022.66 1022.63 1022.56 1022.58 1022.43 1022.26 1022.15 1022.06 1021.94 1021.84 1021.71
1020.84 1020.99 1021.22 1021.47 1021.67 1021.75 1021.83 1022.34 1022.57 1022.82 1022.84 1022.97 1022.97 1022.99 1023.20 1023.34 1023.25 1023.20 1023.23 1023.24 1023.13 1023.37 1023.34 1023.30 1023.32 1023.21 1023.12 1022.94 1022.88 1022.78 1022.73 1022.69 1022.59 1022.35 1022.42 1022.36 1022.22 1021.99 1021.75 1021.61 1021.50 1021.49 1021.33
1020.27 1020.43 1020.56 1020.67 1021.04 1021.37 1021.60 1021.96 1022.20 1022.36 1022.50 1022.55 1022.70 1022.73 1022.82 1023.00 1023.07 1023.03 1022.94 1022.99 1022.95 1022.86 1022.87 1023.03 1022.96 1022.80 1022.76 1022.82 1022.75 1022.79 1022.77 1022.50 1022.21 1022.18 1022.09 1021.88 1021.86 1021.69 1021.53 1021.33 1021.21 1021.09 1021.04
1019.83 1020.00 1020.11 1020.23 1020.44 1020.88 1021.24 1021.39 1021.75 1022.08 1022.11 1022.28 1022.33 1022.35 1022.49 1022.66 1022.77 1022.85 1022.95 1022.93 1022.78 1022.69 1022.61 1022.78 1022.84 1022.79 1022.72 1022.72 1022.64 1022.69 1022.54 1022.39 1022.20 1021.77 1021.62 1021.52 1021.43 1021.46 1021.42 1021.32 1021.26 1021.16 1020.99
1019.38 1019.73 1019.86 1020.02 1020.28 1020.76 1021.09 1021.22 1021.34 1021.62 1021.76 1021.93 1022.03 1021.97 1022.01 1022.19 1022.26 1022.29 1022.43 1022.53 1022.50 1022.43 1022.40 1022.46 1022.43 1022.47 1022.54 1022.46 1022.36 1022.23 1022.15 1021.92 1021.85 1021.69 1021.37 1021.31 1021.35 1021.45 1021.43 1021.40 1021.36 1021.22 1020.99
1019.06 1019.52 1019.60 1019.68 1019.83 1020.07 1020.50 1020.81 1020.95 1021.19 1021.46 1021.58 1021.64 1021.58 1021.50 1021.46 1021.66 1021.82 1021.98 1021.97 1021.80 1021.95 1022.12 1022.18 1022.17 1022.28 1022.29 1022.28 1022.15 1021.99 1021.83 1021.66 1021.43 1021.28 1021.04 1021.20 1021.41 1021.73 1021.81 1021.79 1021.75 1021.54 1021.21
1018.76 1019.01 1019.29 1019.50 1019.77 1020.04 1020.19 1020.58 1020.79 1020.92 1021.15 1021.34 1021.24 1021.34 1021.15 1021.10 1021.09 1021.30 1021.35 1021.32 1021.42 1021.59 1021.66 1021.71 1021.87 1022.09 1022.16 1022.03 1021.89 1021.62 1021.46 1021.41 1021.17 1020.93 1020.89 1021.12 1021.54 1021.92 1022.22 1022.43 1022.33 1022.11 1021.84
1018.20 1018.60 1018.96 1019.29 1019.64 1019.82 1020.13 1020.34 1020.64 1020.97 1020.98 1020.98 1020.96 1020.83 1020.88 1020.74 1020.75 1020.90 1020.99 1020.98 1021.17 1021.37 1021.37 1021.53 1021.65 1021.52 1021.53 1021.49 1021.63 1021.39 1021.18 1021.04 1020.93 1020.60 1020.47 1020.95 1021.53 1021.89 1022.36 1022.50 1022.76 1022.74 1022.50
1018.22 1018.68 1018.95 1019.28 1019.35 1019.72 1020.36 1020.55 1020.73 1020.91 1020.75 1020.52 1020.40 1020.35 1020.47 1020.57 1020.56 1020.58 1020.67 1020.75 1020.90 1021.15 1021.01 1021.07 1021.12 1021.22 1021.25 1021.28 1021.72 1021.41 1021.19 1021.18 1020.99 1020.77 1020.63 1020.72 1021.24 1021.79 1022.29 1022.59 1022.92 1023.02 1022.95
1018.30 1018.41 1018.70 1019.06 1019.36 1019.46 1019.81 1020.05 1020.07 1020.14 1020.19 1020.14 1019.91 1020.15 1020.11 1020.28 1020.37 1020.48 1020.62 1020.52 1020.54 1020.83 1020.76 1020.70 1020.77 1020.87 1020.70 1020.82 1021.24 1021.62 1021.62 1021.70 1021.56 1021.59 1021.38 1021.44 1021.77 1022.00 1022.29 1022.67 1023.00 1023.22 1023.32
1019.17 1019.35 1019.35 1019.57 1019.70 1019.79 1019.80 1020.03 1020.17 1020.19 1020.36 1020.49 1020.17 1020.01 1020.04 1020.04 1020.07 1020.22 1020.16 1020.30 1020.20 1020.37 1020.49 1020.31 1020.31 1020.48 1020.41 1020.38 1020.34 1020.75 1021.29 1021.46 1021.57 1021.95 1022.03 1022.15 1022.21 1022.47 1022.57 1023.01 1023.30 1023.37 1023.39
1020.05 1019.85 1019.90 1020.03 1020.06 1020.08 1019.98 1020.15 1020.39 1020.39 1020.78 1020.55 1020.20 1020.08 1020.03 1019.91 1019.91 1020.10 1019.95 1020.07 1020.13 1020.06 1020.18 1019.89 1019.80 1019.96 1020.06 1020.06 1020.21 1020.08 1020.23 1020.24 1021.09 1021.83 1022.29 1022.64 1022.66 1022.65 1022.73 1022.82 1023.31 1023.42 1023.59
1020.57 1020.51 1020.36 1020.28 1020.29 1020.46 1020.55 1020.53 1020.74 1020.90 1021.22 1020.73 1020.56 1020.40 1020.42 1020.31 1020.17 1020.15 1020.14 1020.06 1019.95 1019.91 1019.82 1019.85 1019.62 1019.57 1019.62 1019.54 1019.66 1019.80 1020.01 1019.86 1020.16 1020.77 1021.68 1022.51 1023.03 1023.10 1023.11 1023.09 1023.52 1023.81 1023.81
1020.90 1020.78 1020.73 1020.76 1021.07 1021.15 1021.24 1021.08 1021.14 1021.43 1021.37 1021.24 1021.04 1021.00 1020.64 1020.51 1020.38 1020.05 1020.14 1020.11 1019.97 1019.83 1019.78 1019.69 1019.57 1019.47 1019.26 1019.06 1019.37 1019.36 1019.43 1019.52 1019.76 1020.07 1020.62 1021.65 1022.20 1023.05 1023.29 1023.56 1023.73 1023.91 1024.06
Wind_Speed
5 6 13 14 13 14 15 14 14 14 14 14 14 14 14 16 16 18 18 17 17 17 16 16 16 16 15 15 14 14 13 13 14 13 13 12 14 14 13 13 11 7 13
10 7 11 13 13 13 15 14 14 13 13 13 13 13 13 14 16 16 16 15 15 15 14 14 15 14 13 12 12 12 10 9 7 13 11 10 11 12 12 11 10 10 12
11 8 8 12 12 14 13 13 12 13 12 12 11 12 11 12 13 14 15 13 14 14 14 12 12 12 10 10 10 10 10 11 8 6 8 4 5 10 10 10 10 10 11
12 8 7 11 12 13 13 12 11 12 11 11 10 10 11 11 11 12 13 13 12 12 12 11 11 11 8 9 9 11 12 13 8 9 4 4 4 8 8 8 9 8 8
11 9 9 11 13 12 12 12 11 11 10 10 10 10 11 10 10 11 11 11 10 11 10 9 10 9 8 7 8 9 11 13 10 5 5 4 2 6 6 6 6 7 7
9 9 10 12 13 13 13 13 11 10 9 9 9 10 9 8 9 10 10 10 9 9 9 8 9 7 7 6 7 8 9 10 8 1 3 4 3 6 6 5 4 3 3
8 8 8 11 12 12 12 13 12 10 10 10 9 8 8 8 8 9 9 9 8 8 7 6 6 5 4 5 5 6 7 8 5 2 1 3 2 3 3 3 2 2 2
10 8 6 8 9 9 9 10 12 11 10 10 10 9 8 7 7 7 7 6 5 5 5 4 3 2 2 2 3 5 6 6 4 2 3 3 5 3 2 4 2 2 2
9 8 6 5 5 6 8 7 8 10 10 10 9 8 8 6 5 5 5 4 4 4 4 4 2 2 1 1 3 4 5 5 3 1 2 3 5 3 3 2 4 6 5
8 8 6 6 5 5 5 7 5 6 7 8 8 7 7 7 6 6 5 3 3 4 4 4 3 3 3 4 6 6 5 7 3 3 3 4 7 5 4 4 5 5 6
6 8 6 6 5 5 5 5 5 5 6 6 6 7 6 3 4 5 5 6 5 4 4 4 5 5 6 7 9 9 5 3 4 2 2 8 7 5 5 5 5 7 7
7 7 8 7 7 6 5 5 5 4 3 4 4 5 3 4 4 5 6 7 8 7 7 7 8 7 6 4 3 6 2 4 3 3 3 8 7 6 5 6 7 8 8
10 7 8 8 8 8 6 4 3 3 3 3 6 5 5 4 4 4 3 3 3 6 3 5 5 3 5 4 4 3 4 4 2 2 1 7 8 9 8 9 10 9 10
10 10 10 9 8 9 5 5 4 3 3 3 5 6 4 3 3 3 3 4 5 3 4 4 3 4 5 6 5 5 4 3 3 2 3 9 10 12 11 10 12 10 12
10 11 12 10 9 8 7 5 4 5 4 5 4 5 4 4 4 3 4 4 4 4 4 4 5 4 5 6 6 5 5 6 5 3 3 9 10 12 12 11 9 11 9
12 11 10 9 8 7 6 7 5 4 5 4 4 5 7 5 5 4 4 4 4 4 4 4 4 4 4 3 5 5 6 6 6 5 5 6 9 9 11 5 4 7 6
9 10 8 8 7 7 7 7 5 5 5 5 5 7 7 6 6 6 5 5 5 5 6 4 4 3 4 3 6 5 5 7 5 6 5 3 2 4 3 5 5 5 5
9 9 8 9 10 9 8 6 4 4 4 5 5 5 7 9 8 6 5 5 5 4 4 4 4 4 4 4 4 5 4 5 6 6 5 2 3 4 8 13 12 13 13
9 9 11 8 10 10 7 5 5 6 4 4 4 5 7 7 8 7 6 6 5 4 4 4 4 4 4 4 5 5 5 5 6 5 5 4 6 6 5 13 14 11 14
9 8 10 8 8 7 4 4 2 3 3 4 5 5 7 6 7 6 5 5 4 4 4 4 5 4 5 4 3 4 4 4 4 5 3 7 7 7 5 6 5 7 13
6 7 8 8 8 5 2 3 2 4 4 4 5 7 7 6 7 6 4 4 4 5 5 6 4 6 4 2 1 3 1 4 4 3 3 7 8 7 7 6 4 3 4
6 8 7 7 6 5 3 2 3 3 3 2 1 5 6 6 6 5 5 5 5 4 6 6 5 3 4 5 4 1 2 2 3 4 4 5 4 4 6 6 6 5 3
7 6 4 2 1 2 4 1 1 2 1 2 2 3 5 6 6 7 6 5 5 4 6 6 5 7 5 4 6 4 2 5 2 2 5 3 4 2 4 5 5 6 5
6 6 7 6 6 4 1 2 4 3 4 3 2 2 5 5 6 6 6 5 5 4 7 7 5 6 5 5 1 5 3 5 4 4 2 2 1 3 3 4 4 5 5
6 7 6 7 6 6 6 4 2 4 2 3 3 6 5 5 6 6 5 6 5 4 5 6 5 5 4 3 4 2 4 3 2 3 3 4 1 0 2 3 4 3 4
6 7 7 9 7 8 7 7 5 6 6 4 4 5 5 4 4 6 6 5 5 5 5 5 6 6 6 4 4 4 4 4 4 4 3 3 3 3 2 3 4 3 3
Wind_Direction
167 152 138 138 136 131 127 117 108 101 97 92 91 86 78 73 71 84 89 91 94 93 90 86 81 78 76 80 82 77 69 69 72 73 71 69 69 74 70 63 53 55 62
141 143 143 140 137 135 133 119 113 106 99 94 89 87 88 82 83 85 88 89 90 92 89 87 85 80 77 78 80 75 69 62 62 66 73 63 68 68 69 57 62 64 66
137 141 139 135 133 129 127 131 119 112 103 97 92 89 93 96 93 88 87 86 90 88 88 84 87 83 76 67 65 64 58 48 59 113 76 60 53 77 76 65 77 62 60
138 138 133 132 135 131 137 131 125 119 111 106 103 97 93 101 95 91 89 84 83 92 88 89 88 87 79 62 49 47 33 38 69 104 91 70 38 75 73 74 67 69 59
138 138 139 138 138 137 145 131 126 120 116 110 106 104 99 91 90 95 89 86 82 80 92 94 93 89 79 63 45 46 40 41 68 100 106 98 67 81 83 79 60 53 48
137 136 145 141 142 139 133 130 130 128 123 119 117 114 107 99 87 105 91 85 84 86 83 105 101 96 84 65 38 30 37 35 48 113 126 125 109 89 85 81 70 60 44
129 139 145 143 143 146 148 145 141 137 133 129 123 120 117 111 112 106 102 95 91 88 90 94 103 102 80 59 29 10 15 22 54 71 207 145 189 112 104 94 81 64 35
131 136 140 146 147 149 151 151 147 145 143 141 137 134 133 129 128 131 126 123 117 110 104 104 108 102 75 30 358 349 347 12 8 30 198 200 216 190 178 197 211 242 273
129 122 117 132 148 148 151 161 161 162 161 161 156 149 143 143 142 140 139 146 143 142 136 128 132 139 195 279 303 316 322 331 324 284 238 221 232 234 235 252 245 247 255
132 132 137 140 151 146 150 147 155 174 170 172 164 161 161 166 171 170 174 194 188 174 175 181 202 230 258 277 286 284 300 316 301 283 250 227 230 242 241 248 263 280 270
142 148 149 152 163 165 160 159 151 151 145 153 160 173 179 193 205 210 205 207 207 207 216 231 243 254 271 278 278 278 274 274 279 272 228 241 237 252 250 258 268 267 277
163 171 167 167 170 170 176 166 174 177 186 193 192 209 216 211 219 207 206 221 222 224 237 248 256 261 267 254 258 280 244 263 270 264 214 228 251 257 254 257 262 268 273
172 174 179 179 179 176 185 177 180 180 191 199 212 216 217 222 217 199 192 200 204 223 239 249 262 248 243 241 248 238 225 231 218 256 174 221 254 266 261 253 250 260 268
163 178 181 192 187 194 173 175 189 190 198 206 212 215 201 224 218 217 210 209 199 204 225 226 238 242 256 262 264 259 254 259 275 223 230 244 252 263 273 267 262 255 265
177 185 187 180 178 193 172 179 188 201 198 212 213 220 201 212 218 222 226 212 219 206 213 229 227 229 227 239 246 234 251 250 252 253 261 259 249 258 272 278 287 278 293
185 188 191 185 184 182 191 181 190 201 209 213 217 217 211 210 213 215 236 238 228 218 214 225 227 243 255 258 256 260 256 260 287 241 219 244 250 256 278 315 3 338 338
190 192 187 189 187 187 193 195 190 206 205 207 212 214 208 212 213 211 215 225 228 227 232 231 240 243 260 244 251 246 243 250 254 263 253 249 279 74 81 59 34 340 341
178 192 188 194 189 191 194 200 201 199 202 213 216 211 214 214 212 213 217 229 222 217 220 225 233 238 232 228 246 251 246 258 261 252 249 183 129 97 67 73 69 59 42
190 183 194 192 194 196 196 195 208 216 209 227 224 229 225 222 219 218 224 232 226 225 223 224 241 208 241 239 236 246 251 251 260 265 252 155 114 108 99 77 63 54 63
193 189 197 194 203 196 187 185 220 247 253 232 230 225 235 227 222 218 229 236 223 231 238 230 231 226 218 233 262 254 262 280 276 253 199 120 125 128 125 104 77 59 70
194 188 197 187 207 156 168 169 193 217 222 229 221 234 237 235 234 224 230 239 233 229 231 219 216 221 235 198 264 290 310 25 26 51 99 124 130 127 122 112 110 88 74
189 203 208 205 197 187 160 192 183 180 221 232 226 246 239 240 248 233 231 237 237 248 250 237 208 218 222 179 181 117 280 304 61 22 72 96 108 124 120 115 115 103 80
51 22 40 34 218 218 208 148 51 18 343 314 258 264 253 229 228 229 234 242 249 226 252 244 218 213 232 211 196 163 168 224 156 48 31 73 116 113 117 119 120 122 107
50 53 65 58 45 34 59 219 223 220 246 249 252 270 277 238 243 249 251 250 259 252 252 253 237 228 204 220 208 234 237 150 182 172 139 29 88 153 140 132 139 134 123
37 36 30 27 21 5 1 357 316 294 295 305 310 308 306 289 268 272 268 268 262 260 262 260 251 222 217 187 199 199 229 223 201 150 184 172 198 46 23 135 128 132 136
33 32 24 19 11 10 6 354 340 308 311 312 309 297 298 301 281 266 271 269 271 271 270 270 260 248 227 201 224 226 211 184 199 193 174 157 180 190 177 171 160 161 158